M I D A S
Marine Information and Data Acquisition System
Tripno 411 of the Zeeleeuw from 2003-01-08 07:41:15 to 2003-01-08 14:00:47
Back to CruiseResearch ActivitiesStationsMapUnderway DataData graphs

EquipmentUnitsComment
TimeDGPSUTC
LatitudeDGPSDM.mWGS84
LongitudeDGPSDM.mWGS84
TemperatureSBE03/SBE38deg celciusITS90
ConductivitySBE21S/mITS90
SalinitySBE21 Practical Salinity Units
ChlorophylAChelsea fluorimeterg/lCalibrated in Aceton
Missing or incorrect values are displayed as -999
Sea surface data collected by the RV Zeeleeuw from 2003-01-08 07:41:15 to 2003-01-08 14:00:47
                                                                                    Next 1000 lines
Time Latitude Longitude Temperature Conductivity Salinity ChlorophylA
2003-01-08 07:41:23 51°13.635 2°55.976 15.651984 0.00053 0.009684  
2003-01-08 07:41:27 51°13.637 2°55.969 15.657025 0.000426 0.009279  
2003-01-08 07:41:33 51°13.64 2°55.959 15.65444 0.00053 0.009685  
2003-01-08 07:41:38 51°13.642 2°55.951 15.639401 0.00053 0.009686  
2003-01-08 07:41:43 51°13.645 2°55.942 15.639401 0.00053 0.009686  
2003-01-08 07:41:47 51°13.647 2°55.935 15.64927 0.00053 0.009686  
2003-01-08 07:41:53 51°13.65 2°55.925 15.597024 0.00053 0.009687  
2003-01-08 07:41:58 51°13.653 2°55.916 15.572266 0.00053 0.009687  
2003-01-08 07:42:03 51°13.655 2°55.907 15.593487 0.00053 0.009688  
2003-01-08 07:42:07 51°13.657 2°55.9 15.540249 0.00053 0.009689  
2003-01-08 07:42:13 51°13.66 2°55.89 15.540249 0.00053 0.009689  
2003-01-08 07:42:18 51°13.662 2°55.881 15.545644 0.00053 0.009689  
2003-01-08 07:42:23 51°13.665 2°55.872 15.551556 0.00053 0.009689  
2003-01-08 07:42:27 51°13.667 2°55.865 15.543141 0.000426 0.009284  
2003-01-08 07:42:33 51°13.67 2°55.855 15.569893 0.000426 0.009285  
2003-01-08 07:42:37 51°13.671 2°55.848 15.567736 0.00053 0.009691  
2003-01-08 07:42:43 51°13.674 2°55.838 15.567736 0.00053 0.009691  
2003-01-08 07:42:47 51°13.675 2°55.832 15.592064 0.000426 0.009286  
2003-01-08 07:42:53 51°13.678 2°55.822 15.578909 0.000426 0.009287  
2003-01-08 07:42:57 51°13.679 2°55.816 15.577141 0.000426 0.009287  
2003-01-08 07:43:03 51°13.681 2°55.806 15.579643 0.00053 0.009693  
2003-01-08 07:43:07 51°13.683 2°55.8 15.584819 0.000426 0.009288  
2003-01-08 07:43:13 51°13.685 2°55.79 15.584819 0.000426 0.009288  
2003-01-08 07:43:17 51°13.686 2°55.784 15.598404 0.000426 0.009289  
2003-01-08 07:43:23 51°13.687 2°55.775 15.557252 0.000426 0.009289  
2003-01-08 07:43:27 51°13.688 2°55.769 15.527775 0.000426 0.00929  
2003-01-08 07:43:33 51°13.689 2°55.761 15.533386 0.00053 0.009696  
2003-01-08 07:43:37 51°13.69 2°55.755 15.52294 0.000426 0.009291  
2003-01-08 07:43:41 51°13.691 2°55.75 15.52294 0.000426 0.009291  
2003-01-08 07:43:47 51°13.692 2°55.743 15.522595 0.000426 0.009291  
2003-01-08 07:43:51 51°13.692 2°55.74 15.503553 0.000426 0.009292  
2003-01-08 07:43:57 51°13.693 2°55.734 15.505022 0.000426 0.009293  
2003-01-08 07:44:01 51°13.693 2°55.731 15.488913 0.000426 0.009293  
2003-01-08 07:44:07 51°13.694 2°55.728 15.483298 0.000426 0.009294  
2003-01-08 07:44:11 51°13.694 2°55.726 15.483298 0.000426 0.009294  
2003-01-08 07:44:17 51°13.695 2°55.725 15.482693 0.000426 0.009294  
2003-01-08 07:44:21 51°13.695 2°55.724 15.466017 0.000426 0.009295  
2003-01-08 07:44:27 51°13.696 2°55.724 15.564501 0.000426 0.009296  
2003-01-08 07:44:31 51°13.697 2°55.724 15.459968 0.000426 0.009296  
2003-01-08 07:44:37 51°13.698 2°55.724 15.45435 0.000426 0.009297  
2003-01-08 07:44:41 51°13.699 2°55.723 15.45435 0.000426 0.009297  
2003-01-08 07:44:47 51°13.701 2°55.724 15.463079 0.000426 0.009297  
2003-01-08 07:44:51 51°13.702 2°55.724 15.44843 0.000426 0.009298  
2003-01-08 07:44:55 51°13.703 2°55.724 15.427077 0.000426 0.009298  
2003-01-08 07:45:01 51°13.705 2°55.724 15.466233 0.000426 0.009299  
2003-01-08 07:45:07 51°13.708 2°55.723 15.413068 0.000426 0.009299  
2003-01-08 07:45:11 51°13.709 2°55.723 15.413068 0.000426 0.009299  
2003-01-08 07:45:15 51°13.711 2°55.723 15.451757 0.000426 0.0093  
2003-01-08 07:45:21 51°13.714 2°55.722 15.412722 0.000426 0.009301  
2003-01-08 07:45:27 51°13.718 2°55.72 15.428417 0.000426 0.009301  
2003-01-08 07:45:31 51°13.72 2°55.719 15.437062 0.000426 0.009302  
2003-01-08 07:45:35 51°13.722 2°55.718 15.378077 0.000426 0.009302  
2003-01-08 07:45:47 51°13.732 2°55.712 15.394775 0.000426 0.009303  
2003-01-08 07:45:51 51°13.735 2°55.709 15.458499 0.000426 0.009303  
2003-01-08 07:45:55 51°13.739 2°55.706 15.452794 0.000426 0.009304  
2003-01-08 07:46:01 51°13.745 2°55.702 15.465887 0.000426 0.009304  
2003-01-08 07:46:07 51°13.751 2°55.696 15.605993 0.000426 0.009305  
2003-01-08 07:46:12 51°13.756 2°55.692 15.605993 0.000426 0.009305  
2003-01-08 07:46:17 51°13.761 2°55.688 15.629402 0.000426 0.009305  
2003-01-08 07:46:22 51°13.766 2°55.683 15.594005 0.000426 0.009306  
2003-01-08 07:46:27 51°13.771 2°55.679 15.528077 0.000426 0.009306  
2003-01-08 07:46:32 51°13.777 2°55.675 15.496557 0.000426 0.009307  
2003-01-08 07:46:37 51°13.782 2°55.671 15.505022 0.000426 0.009308  
2003-01-08 07:46:41 51°13.787 2°55.667 15.505022 0.000426 0.009308  
2003-01-08 07:46:47 51°13.794 2°55.661 15.455387 0.000426 0.009308  
2003-01-08 07:46:51 51°13.799 2°55.658 15.528466 0.000426 0.009308  
2003-01-08 07:46:57 51°13.807 2°55.652 15.62716 0.000426 0.009309  
2003-01-08 07:47:01 51°13.812 2°55.649 15.501653 0.000426 0.00931  
2003-01-08 07:47:07 51°13.82 2°55.643 15.500315 0.000426 0.00931  
2003-01-08 07:47:11 51°13.826 2°55.639 15.500315 0.000426 0.00931  
2003-01-08 07:47:17 51°13.834 2°55.633 15.451152 0.000426 0.00931  
2003-01-08 07:47:21 51°13.84 2°55.629 15.433864 0.000426 0.009311  
2003-01-08 07:47:27 51°13.849 2°55.623 15.429325 0.000426 0.009312  
2003-01-08 07:47:31 51°13.855 2°55.619 15.446614 0.000426 0.009312  
2003-01-08 07:47:37 51°13.864 2°55.613 15.495866 0.000426 0.009313  
2003-01-08 07:47:41 51°13.87 2°55.609 15.495866 0.000426 0.009313  
2003-01-08 07:47:47 51°13.879 2°55.602 15.449899 0.000426 0.009313  
2003-01-08 07:47:51 51°13.886 2°55.597 15.391055 0.000426 0.009314  
2003-01-08 07:47:57 51°13.895 2°55.59 15.472066 0.000426 0.009314  
2003-01-08 07:48:01 51°13.902 2°55.585 15.437278 0.000426 0.009315  
2003-01-08 07:48:07 51°13.911 2°55.578 15.496687 0.000426 0.009315  
2003-01-08 07:48:12 51°13.92 2°55.572 15.496687 0.000426 0.009315  
2003-01-08 07:48:17 51°13.928 2°55.566 15.517586 0.000426 0.009316  
2003-01-08 07:48:22 51°13.937 2°55.559 15.451239 0.000426 0.009316  
2003-01-08 07:48:27 51°13.945 2°55.553 15.449596 0.000426 0.009317  
2003-01-08 07:48:32 51°13.953 2°55.546 15.420375 0.000426 0.009317  
2003-01-08 07:48:37 51°13.962 2°55.539 15.40083 0.000426 0.009317  
2003-01-08 07:48:41 51°13.969 2°55.534 15.40083 0.000426 0.009317  
2003-01-08 07:48:47 51°13.98 2°55.526 15.468739 0.000426 0.009319  
2003-01-08 07:48:51 51°13.988 2°55.521 15.575803 0.000426 0.009319  
2003-01-08 07:48:57 51°13.999 2°55.514 15.489215 0.000426 0.009319  
2003-01-08 07:49:01 51°14.007 2°55.509 15.421067 0.000426 0.00932  
2003-01-08 07:49:07 51°14.018 2°55.502 15.398884 0.000426 0.009321  
2003-01-08 07:49:11 51°14.025 2°55.496 15.398884 0.000426 0.009321  
2003-01-08 07:49:17 51°14.037 2°55.489 15.337355 0.000426 0.009321  
2003-01-08 07:49:21 51°14.044 2°55.483 15.319691 0.000426 0.009321  
2003-01-08 07:49:27 51°14.056 2°55.475 15.302628 0.000426 0.009322  
2003-01-08 07:49:31 51°14.063 2°55.469 15.39577 0.000426 0.009322  
2003-01-08 07:49:37 51°14.075 2°55.46 15.413803 0.000426 0.009323  
2003-01-08 07:49:41 51°14.082 2°55.454 15.413803 0.000426 0.009323  
2003-01-08 07:49:47 51°14.094 2°55.444 15.524451 0.000426 0.009324  
2003-01-08 07:49:51 51°14.102 2°55.438 15.286905 0.000426 0.009324  
2003-01-08 07:49:57 51°14.114 2°55.428 15.151305 0.000426 0.009324  
2003-01-08 07:50:01 51°14.121 2°55.421 15.353759 0.000426 0.009325  
2003-01-08 07:50:07 51°14.133 2°55.411 15.373578 0.000426 0.009326  
2003-01-08 07:50:13 51°14.145 2°55.4 15.373578 0.000426 0.009326  
2003-01-08 07:50:17 51°14.153 2°55.392 15.314928 0.000426 0.009326  
2003-01-08 07:50:23 51°14.165 2°55.38 15.312676 0.000426 0.009327  
2003-01-08 07:50:28 51°14.174 2°55.37 15.321423 0.000426 0.009327  
2003-01-08 07:50:31 51°14.18 2°55.364 15.31155 0.000426 0.009327  
2003-01-08 07:50:37 51°14.192 2°55.351 15.303235 0.000426 0.009328  
2003-01-08 07:50:43 51°14.203 2°55.338 15.303235 0.000426 0.009328  
2003-01-08 07:50:47 51°14.21 2°55.328 15.21465 0.000426 0.009329  
2003-01-08 07:50:53 51°14.221 2°55.314 15.16489 0.000426 0.009329  
2003-01-08 07:50:57 51°14.229 2°55.304 15.165324 0.000426 0.009329  
2003-01-08 07:51:03 51°14.239 2°55.289 15.165932 0.000426 0.00933  
2003-01-08 07:51:07 51°14.246 2°55.278 15.277027 0.000426 0.009331  
2003-01-08 07:51:13 51°14.256 2°55.262 15.277027 0.000426 0.009331  
2003-01-08 07:51:17 51°14.263 2°55.251 15.237891 0.000426 0.009331  
2003-01-08 07:51:23 51°14.273 2°55.234 15.103366 0.000426 0.009331  
2003-01-08 07:51:27 51°14.279 2°55.223 15.152998 0.000426 0.009332  
2003-01-08 07:51:31 51°14.285 2°55.211 15.037003 0.000426 0.009333  
2003-01-08 07:51:37 51°14.295 2°55.193 15.056871 0.000426 0.009333  
2003-01-08 07:51:41 51°14.301 2°55.181 15.056871 0.000426 0.009333  
2003-01-08 07:51:47 51°14.31 2°55.163 15.13407 0.000426 0.009334  
2003-01-08 07:51:51 51°14.316 2°55.15 15.037264 0.000426 0.009334  
2003-01-08 07:51:55 51°14.322 2°55.138 15.069041 0.000426 0.009335  
2003-01-08 07:52:01 51°14.33 2°55.119 15.115962 0.000426 0.009335  
2003-01-08 07:52:07 51°14.339 2°55.099 15.055306 0.000426 0.009336  
2003-01-08 07:52:11 51°14.345 2°55.086 15.055306 0.000426 0.009336  
2003-01-08 07:52:17 51°14.354 2°55.066 15.05235 0.000426 0.009336  
2003-01-08 07:52:21 51°14.36 2°55.053 15.086119 0.000426 0.009337  
2003-01-08 07:52:27 51°14.368 2°55.031 15.060392 0.000426 0.009337  
2003-01-08 07:52:32 51°14.376 2°55.013 15.178212 0.000426 0.009338  
2003-01-08 07:52:37 51°14.383 2°54.993 15.105451 0.000426 0.009338  
2003-01-08 07:52:41 51°14.39 2°54.977 15.105451 0.000426 0.009338  
2003-01-08 07:52:47 51°14.4 2°54.953 15.103887 0.000426 0.009339  
2003-01-08 07:52:51 51°14.407 2°54.937 15.327831 0.000426 0.009339  
2003-01-08 07:52:57 51°14.42 2°54.913 15.277677 0.000426 0.00934  
2003-01-08 07:53:01 51°14.429 2°54.899 15.491116 0.000426 0.00934  
2003-01-08 07:53:07 51°14.443 2°54.876 15.435938 0.000426 0.009341  
2003-01-08 07:53:11 51°14.453 2°54.862 15.435938 0.000426 0.009341  
2003-01-08 07:53:17 51°14.468 2°54.84 15.333199 0.000426 0.009341  
2003-01-08 07:53:21 51°14.478 2°54.825 15.396808 0.000426 0.009342  
2003-01-08 07:53:27 51°14.494 2°54.803 15.325103 0.000426 0.009342  
2003-01-08 07:53:31 51°14.504 2°54.788 15.337009 0.000426 0.009343  
2003-01-08 07:53:36 51°14.517 2°54.77 15.287425 0.000426 0.009343  
2003-01-08 07:53:41 51°14.53 2°54.75 15.287425 0.000426 0.009343  
2003-01-08 07:53:47 51°14.545 2°54.727 15.311463 0.000426 0.009344  
2003-01-08 07:53:51 51°14.555 2°54.712 15.268621 0.000426 0.009344  
2003-01-08 07:53:57 51°14.571 2°54.689 15.370852 0.000426 0.009345  
2003-01-08 07:54:01 51°14.582 2°54.675 15.373491 0.000426 0.009345  
2003-01-08 07:54:07 51°14.598 2°54.655 15.27642 0.000426 0.009346  
2003-01-08 07:54:11 51°14.609 2°54.642 15.27642 0.000426 0.009346  
2003-01-08 07:54:17 51°14.626 2°54.623 15.283006 0.000426 0.009346  
2003-01-08 07:54:21 51°14.638 2°54.611 15.305487 0.000426 0.009347  
2003-01-08 07:54:27 51°14.655 2°54.592 15.261947 0.000426 0.009347  
2003-01-08 07:54:31 51°14.667 2°54.581 15.278413 0.000426 0.009347  
2003-01-08 07:54:37 51°14.685 2°54.564 15.269054 0.000426 0.009348  
2003-01-08 07:54:41 51°14.697 2°54.554 15.269054 0.000426 0.009348  
2003-01-08 07:54:47 51°14.715 2°54.537 15.246388 0.000426 0.009348  
2003-01-08 07:54:51 51°14.727 2°54.527 15.267061 0.000426 0.009349  
2003-01-08 07:54:57 51°14.745 2°54.51 15.253019 0.000426 0.00935  
2003-01-08 07:55:01 51°14.757 2°54.499 15.260777 0.000426 0.00935  
2003-01-08 07:55:07 51°14.774 2°54.482 15.224971 0.000426 0.00935  
2003-01-08 07:55:11 51°14.786 2°54.471 15.224971 0.000426 0.00935  
2003-01-08 07:55:17 51°14.804 2°54.453 -999 0.000426 0.009351  
2003-01-08 07:55:19 51°14.81 2°54.447 -999 0.000426 0.009352  
2003-01-08 07:55:27 51°14.833 2°54.424 -999 0.000426 0.009352  
2003-01-08 07:55:31 51°14.845 2°54.413 -999 0.000426 0.009352  
2003-01-08 07:55:35 51°14.857 2°54.401 -999 0.000426 0.009353  
2003-01-08 07:55:41 51°14.874 2°54.384 -999 0.000426 0.009353  
2003-01-08 07:55:47 51°14.892 2°54.367 12.894587 0.000426 0.009353  
2003-01-08 07:55:51 51°14.904 2°54.356 8.754882 0.000426 0.009329  
2003-01-08 07:55:57 51°14.922 2°54.339 8.307554 0.080469 0.480125  
2003-01-08 07:56:01 51°14.933 2°54.327 7.832416 0.155059 0.930641  
2003-01-08 07:56:07 51°14.951 2°54.311 7.348702 2.311258 16.474525  
2003-01-08 07:56:11 51°14.963 2°54.3 7.348702 2.311258 16.474525  
2003-01-08 07:56:19 51°14.986 2°54.277 7.458266 2.780272 23.011181  
2003-01-08 07:56:23 51°14.998 2°54.266 7.458266 2.780272 23.011181  
2003-01-08 07:56:29 51°15.015 2°54.249 6.895121 2.799547 24.673947  
2003-01-08 07:56:33 51°15.027 2°54.237 7.73238 2.849331 26.389654  
2003-01-08 07:56:39 51°15.045 2°54.22 7.638755 2.90669 27.6815  
2003-01-08 07:56:43 51°15.057 2°54.209 7.650673 2.939319 28.435443  
2003-01-08 07:56:49 51°15.074 2°54.191 7.438018 2.953952 28.902364  
2003-01-08 07:56:53 51°15.086 2°54.18 7.438018 2.953952 28.902364  
2003-01-08 07:56:59 51°15.104 2°54.163 7.580256 2.956795 29.090156  
2003-01-08 07:57:03 51°15.116 2°54.151 7.357057 2.96227 29.254321  
2003-01-08 07:57:09 51°15.133 2°54.134 7.246438 2.961955 29.320879  
2003-01-08 07:57:13 51°15.145 2°54.122 6.996916 2.966165 29.420261  
2003-01-08 07:57:19 51°15.163 2°54.105 7.323628 2.959324 29.372798  
2003-01-08 07:57:23 51°15.174 2°54.093 7.323628 2.959324 29.372798  
2003-01-08 07:57:29 51°15.192 2°54.075 7.578698 2.958904 29.40534  
2003-01-08 07:57:33 51°15.203 2°54.063 7.372935 2.963956 29.478671  
2003-01-08 07:57:39 51°15.221 2°54.045 7.433479 2.963851 29.499926  
2003-01-08 07:57:43 51°15.233 2°54.034 7.721401 2.960588 29.488739  
2003-01-08 07:57:49 51°15.25 2°54.018 6.999913 2.964904 29.548185  
2003-01-08 07:57:53 51°15.262 2°54.007 6.999913 2.964904 29.548185  
2003-01-08 07:57:59 51°15.28 2°53.991 7.353002 2.962273 29.528229  
2003-01-08 07:58:03 51°15.292 2°53.98 7.049029 2.959642 29.517259  
2003-01-08 07:58:09 51°15.31 2°53.964 7.185766 2.96101 29.538326  
2003-01-08 07:58:13 51°15.321 2°53.953 6.94235 2.963431 29.583778  
2003-01-08 07:58:19 51°15.339 2°53.938 7.322601 2.963852 29.607238  
2003-01-08 07:58:23 51°15.351 2°53.927 7.322601 2.963852 29.607238  
2003-01-08 07:58:29 51°15.369 2°53.911 6.669955 2.95659 29.568541  
2003-01-08 07:58:33 51°15.381 2°53.9 7.513563 2.956064 29.59063  
2003-01-08 07:58:39 51°15.399 2°53.884 7.476704 2.955644 29.623005  
2003-01-08 07:58:43 51°15.411 2°53.873 6.777485 2.955539 29.64683  
2003-01-08 07:58:49 51°15.428 2°53.856 7.349386 2.938279 29.473112  
2003-01-08 07:58:53 51°15.44 2°53.845 7.349386 2.938279 29.473112  
2003-01-08 07:58:59 51°15.458 2°53.829 7.109243 2.94512 29.566253  
2003-01-08 07:59:03 51°15.469 2°53.818 6.905701 2.945015 29.574929  
2003-01-08 07:59:09 51°15.487 2°53.802 6.744835 2.947751 29.61588  
2003-01-08 07:59:13 51°15.499 2°53.79 6.811744 2.945646 29.60012  
2003-01-08 07:59:19 51°15.517 2°53.774 7.006694 2.943436 29.579397  
2003-01-08 07:59:23 51°15.529 2°53.763 7.006694 2.943436 29.579397  
2003-01-08 07:59:29 51°15.547 2°53.747 6.834704 2.941331 29.569691  
2003-01-08 07:59:31 51°15.553 2°53.742 7.14558 2.937332 29.524563  
2003-01-08 07:59:39 51°15.578 2°53.72 7.024083 2.943121 29.588786  
2003-01-08 07:59:43 51°15.59 2°53.708 7.666235 2.943121 29.593338  
2003-01-08 07:59:49 51°15.609 2°53.691 6.955529 2.947962 29.653158  
2003-01-08 07:59:53 51°15.621 2°53.679 6.955529 2.947962 29.653158  
2003-01-08 07:59:59 51°15.641 2°53.661 7.487286 2.930491 29.466819  
2003-01-08 08:00:03 51°15.654 2°53.649 7.585952 2.936596 29.549727  
2003-01-08 08:00:09 51°15.674 2°53.631 7.206633 2.933018 29.516811  
2003-01-08 08:00:13 51°15.687 2°53.619 7.178123 2.9427 29.63046  
2003-01-08 08:00:19 51°15.707 2°53.6 7.342837 2.94249 29.629642  
2003-01-08 08:00:23 51°15.72 2°53.588 7.342837 2.94249 29.629642  
2003-01-08 08:00:29 51°15.74 2°53.569 7.222157 2.943332 29.633672  
2003-01-08 08:00:33 51°15.754 2°53.557 7.177486 2.950278 29.703249  
2003-01-08 08:00:39 51°15.774 2°53.538 7.416445 2.939016 29.567504  
2003-01-08 08:00:43 51°15.788 2°53.526 7.568423 2.955224 29.739144  
2003-01-08 08:00:49 51°15.808 2°53.507 6.927742 2.957539 29.754944  
2003-01-08 08:00:53 51°15.822 2°53.494 6.927742 2.957539 29.754944  
2003-01-08 08:00:59 51°15.842 2°53.475 7.600897 2.954066 29.7118  
2003-01-08 08:01:03 51°15.856 2°53.463 7.675327 2.95554 29.726636  
2003-01-08 08:01:09 51°15.876 2°53.444 6.987186 2.960486 29.783094  
2003-01-08 08:01:14 51°15.894 2°53.428 7.979445 2.959434 29.774459  
2003-01-08 08:01:19 51°15.911 2°53.413 7.619197 2.954066 29.718659  
2003-01-08 08:01:23 51°15.924 2°53.4 7.619197 2.954066 29.718659  
2003-01-08 08:01:29 51°15.945 2°53.381 6.884342 2.960171 29.791811  
2003-01-08 08:01:33 51°15.959 2°53.368 7.365852 2.956487 29.756229  
2003-01-08 08:01:39 51°15.979 2°53.349 7.164206 2.945436 29.637278  
2003-01-08 08:01:43 51°15.993 2°53.337 7.688793 2.956803 29.769667  
2003-01-08 08:01:49 51°16.014 2°53.318 7.236453 2.953646 29.741446  
2003-01-08 08:01:51 51°16.02 2°53.312 7.236453 2.953646 29.741446  
2003-01-08 08:01:59 51°16.048 2°53.286 7.439921 2.952488 29.735448  
2003-01-08 08:02:03 51°16.062 2°53.274 7.15504 2.945436 29.662397  
2003-01-08 08:02:09 51°16.083 2°53.255 6.839138 2.949962 29.717288  
2003-01-08 08:02:13 51°16.097 2°53.242 7.0287 2.95133 29.735559  
2003-01-08 08:02:19 51°16.117 2°53.223 6.865387 2.940806 29.621579  
2003-01-08 08:02:23 51°16.131 2°53.211 6.865387 2.940806 29.621579  
2003-01-08 08:02:27 51°16.145 2°53.199 7.58084 2.949331 29.720192  
2003-01-08 08:02:33 51°16.166 2°53.18 7.251969 2.953014 29.764995  
2003-01-08 08:02:39 51°16.187 2°53.161 7.357302 2.951962 29.753284  
2003-01-08 08:02:43 51°16.201 2°53.149 7.325485 2.955856 29.798914  
2003-01-08 08:02:49 51°16.221 2°53.13 7.453144 2.951015 29.747333  
2003-01-08 08:02:53 51°16.235 2°53.117 7.453144 2.951015 29.747333  
2003-01-08 08:02:59 51°16.256 2°53.099 7.343913 2.941964 29.650449  
2003-01-08 08:03:03 51°16.269 2°53.086 6.877991 2.9467 29.710778  
2003-01-08 08:03:09 51°16.29 2°53.068 6.971655 2.950489 29.759838  
2003-01-08 08:03:14 51°16.308 2°53.052 6.951841 2.949857 29.758932  
2003-01-08 08:03:19 51°16.325 2°53.036 7.133078 2.951857 29.781968  
2003-01-08 08:03:23 51°16.338 2°53.024 7.133078 2.951857 29.781968  
2003-01-08 08:03:29 51°16.359 2°53.005 6.745082 2.956909 29.836705  
2003-01-08 08:03:33 51°16.373 2°52.992 7.079364 2.953751 29.795402  
2003-01-08 08:03:39 51°16.393 2°52.973 6.849235 2.963539 29.895965  
2003-01-08 08:03:43 51°16.407 2°52.961 7.137392 2.96817 29.935233  
2003-01-08 08:03:49 51°16.428 2°52.942 7.102572 2.971643 29.959281  
2003-01-08 08:03:51 51°16.435 2°52.936 7.102572 2.971643 29.959281  
2003-01-08 08:03:59 51°16.462 2°52.911 7.589798 2.977958 30.014941  
2003-01-08 08:04:03 51°16.476 2°52.899 7.357937 2.983853 30.067426  
2003-01-08 08:04:09 51°16.497 2°52.88 7.767588 2.981116 30.024645  
2003-01-08 08:04:13 51°16.51 2°52.867 7.820436 2.987326 30.084462  
2003-01-08 08:04:19 51°16.531 2°52.848 7.78681 2.977642 29.97064  
2003-01-08 08:04:23 51°16.545 2°52.836 7.78681 2.977642 29.97064  
2003-01-08 08:04:29 51°16.565 2°52.818 7.156952 2.992483 30.128695  
2003-01-08 08:04:33 51°16.579 2°52.805 7.243061 2.989115 30.086617  
2003-01-08 08:04:39 51°16.6 2°52.787 7.246438 2.998798 30.188098  
2003-01-08 08:04:43 51°16.613 2°52.774 7.012687 2.99743 30.164381  
2003-01-08 08:04:49 51°16.634 2°52.756 7.372545 2.998798 30.170316  
2003-01-08 08:04:51 51°16.641 2°52.75 7.372545 2.998798 30.170316  
2003-01-08 08:04:59 51°16.668 2°52.725 6.853668 3.001535 30.192998  
2003-01-08 08:05:03 51°16.682 2°52.713 7.054725 3.00585 30.233988  
2003-01-08 08:05:09 51°16.702 2°52.695 7.096489 3.001219 30.176356  
2003-01-08 08:05:13 51°16.716 2°52.683 6.936252 3.005429 30.218482  
2003-01-08 08:05:19 51°16.737 2°52.665 7.295267 3.012481 30.293723  
2003-01-08 08:05:23 51°16.75 2°52.653 7.295267 3.012481 30.293723  
2003-01-08 08:05:29 51°16.77 2°52.635 7.416738 3.008166 30.244237  
2003-01-08 08:05:33 51°16.784 2°52.623 7.499914 3.015429 30.320262  
2003-01-08 08:05:39 51°16.805 2°52.606 6.981239 3.014797 30.314797  
2003-01-08 08:05:43 51°16.818 2°52.594 6.985319 3.015429 30.321813  
2003-01-08 08:05:49 51°16.839 2°52.577 7.351438 3.013639 30.301935  
2003-01-08 08:05:51 51°16.846 2°52.571 7.351438 3.013639 30.301935  
2003-01-08 08:05:59 51°16.874 2°52.548 7.190763 3.018376 30.354558  
2003-01-08 08:06:03 51°16.887 2°52.537 7.436017 3.01585 30.325715  
2003-01-08 08:06:09 51°16.908 2°52.52 6.956807 3.021955 30.391216  
2003-01-08 08:06:13 51°16.922 2°52.508 7.48002 3.020692 30.375627  
2003-01-08 08:06:19 51°16.943 2°52.492 7.242082 3.023428 30.404481  
2003-01-08 08:06:23 51°16.958 2°52.481 7.242082 3.023428 30.404481  
2003-01-08 08:06:29 51°16.979 2°52.465 7.444264 3.025113 30.420083  
2003-01-08 08:06:31 51°16.986 2°52.46 7.325485 3.027323 30.441531  
2003-01-08 08:06:39 51°17.014 2°52.438 7.569007 3.028376 30.45167  
2003-01-08 08:06:43 51°17.028 2°52.428 7.330814 3.030376 30.470777  
2003-01-08 08:06:49 51°17.049 2°52.412 7.338097 3.030691 30.473506  
2003-01-08 08:06:53 51°17.063 2°52.401 7.338097 3.030691 30.473506  
2003-01-08 08:06:59 51°17.084 2°52.385 7.581132 3.026165 30.420888  
2003-01-08 08:07:03 51°17.098 2°52.375 7.221814 3.029323 30.45441  
2003-01-08 08:07:09 51°17.119 2°52.358 7.066309 3.034902 30.514053  
2003-01-08 08:07:11 51°17.126 2°52.353 7.401652 3.032797 30.489105  
2003-01-08 08:07:19 51°17.155 2°52.331 7.533642 3.029112 30.446624  
2003-01-08 08:07:23 51°17.169 2°52.32 7.533642 3.029112 30.446624  
2003-01-08 08:07:29 51°17.19 2°52.304 7.423132 3.041218 30.577204  
2003-01-08 08:07:33 51°17.204 2°52.293 7.072494 3.04027 30.565115  
2003-01-08 08:07:39 51°17.226 2°52.276 7.277218 3.041639 30.577976  
2003-01-08 08:07:43 51°17.24 2°52.265 7.162098 3.046481 30.625521  
2003-01-08 08:07:49 51°17.261 2°52.248 7.129694 3.049113 30.646934  
2003-01-08 08:07:53 51°17.275 2°52.237 7.129694 3.049113 30.646934  
2003-01-08 08:07:59 51°17.296 2°52.22 7.658357 3.05006 30.64885  
2003-01-08 08:08:03 51°17.31 2°52.209 7.226123 3.04827 30.620376  
2003-01-08 08:08:09 51°17.331 2°52.192 7.355934 3.05606 30.699043  
2003-01-08 08:08:13 51°17.345 2°52.181 7.722373 3.054902 30.681489  
2003-01-08 08:08:19 51°17.366 2°52.164 7.606689 3.049533 30.614868  
2003-01-08 08:08:23 51°17.38 2°52.153 7.606689 3.049533 30.614868  
2003-01-08 08:08:29 51°17.402 2°52.137 7.253829 3.059113 30.715701  
2003-01-08 08:08:34 51°17.419 2°52.123 7.497086 3.045322 30.555683  
2003-01-08 08:08:39 51°17.436 2°52.109 7.577918 3.048691 30.585244  
2003-01-08 08:08:43 51°17.451 2°52.098 7.741706 3.049849 30.591846  
2003-01-08 08:08:49 51°17.472 2°52.081 7.585563 3.057323 30.666907  
2003-01-08 08:08:53 51°17.485 2°52.07 7.585563 3.057323 30.666907  
2003-01-08 08:08:59 51°17.507 2°52.054 7.589652 3.061955 30.713574  
2003-01-08 08:09:03 51°17.521 2°52.043 7.552788 3.063849 30.730673  
2003-01-08 08:09:07 51°17.535 2°52.032 7.474948 3.06227 30.709255  
2003-01-08 08:09:14 51°17.559 2°52.013 7.637685 3.06406 30.725965  
2003-01-08 08:09:19 51°17.577 2°51.999 7.078825 3.067218 30.75941  
2003-01-08 08:09:23 51°17.591 2°51.988 7.078825 3.067218 30.75941  
2003-01-08 08:09:29 51°17.612 2°51.972 6.878631 3.058796 30.66294  
2003-01-08 08:09:34 51°17.63 2°51.958 7.561458 3.068165 30.7613  
2003-01-08 08:09:39 51°17.648 2°51.944 7.202911 3.067744 30.754284  
2003-01-08 08:09:43 51°17.662 2°51.933 7.166215 3.062796 30.697894  
2003-01-08 08:09:49 51°17.683 2°51.916 6.726827 3.065533 30.725094  
2003-01-08 08:09:53 51°17.697 2°51.905 6.726827 3.065533 30.725094  
2003-01-08 08:09:59 51°17.718 2°51.889 7.651159 3.065428 30.723146  
2003-01-08 08:10:03 51°17.732 2°51.877 7.173272 3.068902 30.761639  
2003-01-08 08:10:09 51°17.753 2°51.861 7.176212 3.070271 30.772889  
2003-01-08 08:10:14 51°17.77 2°51.848 7.141854 3.070902 30.779105  
2003-01-08 08:10:19 51°17.788 2°51.834 7.185619 3.070902 30.776756  
2003-01-08 08:10:23 51°17.802 2°51.823 7.185619 3.070902 30.776756  
2003-01-08 08:10:29 51°17.823 2°51.807 6.948547 3.071534 30.782189  
2003-01-08 08:10:33 51°17.837 2°51.796 7.555711 3.071323 30.77829  
2003-01-08 08:10:39 51°17.859 2°51.78 7.322112 3.063954 30.692761  
2003-01-08 08:10:43 51°17.873 2°51.769 7.367611 3.075639 30.819059  
2003-01-08 08:10:49 51°17.894 2°51.752 7.532423 3.074692 30.806996  
2003-01-08 08:10:53 51°17.908 2°51.741 7.532423 3.074692 30.806996  
2003-01-08 08:10:59 51°17.929 2°51.724 7.502059 3.075745 30.813957  
2003-01-08 08:11:03 51°17.943 2°51.713 7.628296 3.078797 30.844638  
2003-01-08 08:11:09 51°17.964 2°51.696 7.516731 3.073007 30.775818  
2003-01-08 08:11:13 51°17.978 2°51.685 7.881576 3.081008 30.859714  
2003-01-08 08:11:19 51°17.999 2°51.668 7.771132 3.082271 30.870567  
2003-01-08 08:11:23 51°18.013 2°51.657 7.771132 3.082271 30.870567  
2003-01-08 08:11:29 51°18.034 2°51.639 7.257548 3.083745 30.880612  
2003-01-08 08:11:33 51°18.048 2°51.628 7.664193 3.08564 30.894532  
2003-01-08 08:11:39 51°18.069 2°51.611 7.273499 3.085745 30.889421  
2003-01-08 08:11:43 51°18.084 2°51.6 7.201784 3.088588 30.913821  
2003-01-08 08:11:49 51°18.105 2°51.583 7.531936 3.091114 30.93472  
2003-01-08 08:11:53 51°18.119 2°51.572 7.531936 3.091114 30.93472  
2003-01-08 08:11:59 51°18.14 2°51.555 8.09784 3.090693 30.92535  
2003-01-08 08:12:03 51°18.155 2°51.543 7.868005 3.093114 30.946646  
2003-01-08 08:12:09 51°18.176 2°51.527 7.557513 3.096062 30.970619  
2003-01-08 08:12:13 51°18.19 2°51.515 7.405851 3.09522 30.954236  
2003-01-08 08:12:19 51°18.211 2°51.498 7.772394 3.098588 30.985212  
2003-01-08 08:12:23 51°18.226 2°51.487 7.772394 3.098588 30.985212  
2003-01-08 08:12:29 51°18.247 2°51.47 7.339074 3.100167 30.995604  
2003-01-08 08:12:33 51°18.261 2°51.458 7.465925 3.099115 30.976113  
2003-01-08 08:12:39 51°18.282 2°51.441 7.432942 3.101852 30.997732  
2003-01-08 08:12:43 51°18.296 2°51.429 7.358914 3.104799 31.024027  
2003-01-08 08:12:49 51°18.318 2°51.412 7.404142 3.105852 31.027019  
2003-01-08 08:12:53 51°18.332 2°51.4 7.404142 3.105852 31.027019  
2003-01-08 08:12:59 51°18.353 2°51.383 6.808146 3.104694 31.007943  
2003-01-08 08:13:03 51°18.367 2°51.372 7.134009 3.107747 31.035386  
2003-01-08 08:13:09 51°18.388 2°51.354 7.137392 3.105641 31.005068  
2003-01-08 08:13:14 51°18.406 2°51.34 7.261561 3.106378 31.008498  
2003-01-08 08:13:19 51°18.423 2°51.326 7.424401 3.108694 31.028577  
2003-01-08 08:13:23 51°18.438 2°51.314 7.424401 3.108694 31.028577  
2003-01-08 08:13:29 51°18.459 2°51.297 7.586488 3.109115 31.028517  
2003-01-08 08:13:33 51°18.473 2°51.286 7.350412 3.112169 31.055938  
2003-01-08 08:13:39 51°18.494 2°51.27 8.148052 3.113011 31.060523  
2003-01-08 08:13:43 51°18.509 2°51.259 7.315708 3.113116 31.05776  
2003-01-08 08:13:49 51°18.53 2°51.245 7.397404 3.1148 31.073207  
2003-01-08 08:13:53 51°18.545 2°51.235 7.397404 3.1148 31.073207  
2003-01-08 08:13:59 51°18.567 2°51.222 7.440897 3.109642 31.013154  
2003-01-08 08:14:03 51°18.582 2°51.214 7.40463 3.116485 31.085511  
2003-01-08 08:14:09 51°18.604 2°51.202 7.688501 3.117643 31.095147  
2003-01-08 08:14:14 51°18.623 2°51.193 8.129372 3.117853 31.095899  
2003-01-08 08:14:19 51°18.642 2°51.184 7.455778 3.11838 31.098564  
2003-01-08 08:14:23 51°18.656 2°51.176 7.455778 3.11838 31.098564  
2003-01-08 08:14:29 51°18.679 2°51.166 7.974944 3.120275 31.117112  
2003-01-08 08:14:33 51°18.694 2°51.159 8.297155 3.120485 31.115506  
2003-01-08 08:14:39 51°18.716 2°51.149 7.626982 3.121328 31.121653  
2003-01-08 08:14:43 51°18.731 2°51.142 7.988493 3.121538 31.120832  
2003-01-08 08:14:49 51°18.754 2°51.133 7.433284 3.124065 31.146341  
2003-01-08 08:14:54 51°18.772 2°51.125 7.433284 3.124065 31.146341  
2003-01-08 08:14:59 51°18.791 2°51.118 7.635642 3.12238 31.125406  
2003-01-08 08:15:03 51°18.806 2°51.112 7.195661 3.124486 31.146268  
2003-01-08 08:15:09 51°18.828 2°51.103 7.31561 3.124275 31.13923  
2003-01-08 08:15:13 51°18.843 2°51.097 7.395548 3.127013 31.167054  
2003-01-08 08:15:19 51°18.866 2°51.089 7.594764 3.129645 31.192143  
2003-01-08 08:15:23 51°18.881 2°51.084 7.594764 3.129645 31.192143  
2003-01-08 08:15:29 51°18.904 2°51.075 6.911114 3.129645 31.189781  
2003-01-08 08:15:34 51°18.922 2°51.069 7.270564 3.129539 31.185473  
2003-01-08 08:15:39 51°18.941 2°51.062 7.230382 3.128487 31.173866  
2003-01-08 08:15:43 51°18.956 2°51.057 7.386953 3.129855 31.188955  
2003-01-08 08:15:49 51°18.979 2°51.048 7.424841 3.129013 31.178097  
2003-01-08 08:15:53 51°18.994 2°51.042 7.424841 3.129013 31.178097  
2003-01-08 08:15:59 51°19.017 2°51.034 7.343375 3.128697 31.175401  
2003-01-08 08:16:03 51°19.032 2°51.028 7.663025 3.128276 31.172332  
2003-01-08 08:16:09 51°19.054 2°51.02 7.858164 3.121011 31.093829  
2003-01-08 08:16:13 51°19.07 2°51.014 7.536809 3.12438 31.130962  
2003-01-08 08:16:19 51°19.092 2°51.005 7.773025 3.12596 31.149156  
2003-01-08 08:16:23 51°19.107 2°50.999 7.773025 3.12596 31.149156  
2003-01-08 08:16:29 51°19.13 2°50.99 7.689231 3.124591 31.136425  
2003-01-08 08:16:34 51°19.149 2°50.982 7.810005 3.126276 31.157355  
2003-01-08 08:16:39 51°19.168 2°50.975 7.289545 3.124591 31.141926  
2003-01-08 08:16:43 51°19.183 2°50.969 7.648533 3.125328 31.150838  
2003-01-08 08:16:49 51°19.206 2°50.96 7.604353 3.124591 31.14507  
2003-01-08 08:16:53 51°19.221 2°50.954 7.604353 3.124591 31.14507  
2003-01-08 08:16:59 51°19.244 2°50.945 8.196345 3.118485 31.080883  
2003-01-08 08:17:03 51°19.259 2°50.939 7.717903 3.114589 31.038724  
2003-01-08 08:17:09 51°19.282 2°50.93 7.19189 3.120801 31.108776  
2003-01-08 08:17:14 51°19.301 2°50.922 7.910454 3.120275 31.105328  
2003-01-08 08:17:19 51°19.319 2°50.912 7.750011 3.120064 31.104576  
2003-01-08 08:17:23 51°19.334 2°50.903 7.750011 3.120064 31.104576  
2003-01-08 08:17:29 51°19.356 2°50.887 7.185325 3.118906 31.093375  
2003-01-08 08:17:33 51°19.369 2°50.875 7.902412 3.118169 31.088388  
2003-01-08 08:17:39 51°19.39 2°50.857 7.738549 3.118485 31.095798  
2003-01-08 08:17:43 51°19.404 2°50.844 7.618321 3.116695 31.079197  
2003-01-08 08:17:49 51°19.424 2°50.825 7.619002 3.116695 31.081552  
2003-01-08 08:17:53 51°19.438 2°50.812 7.619002 3.116695 31.081552  
2003-01-08 08:17:59 51°19.458 2°50.791 7.418642 3.114906 31.064163  
2003-01-08 08:18:03 51°19.472 2°50.778 8.369292 3.116274 31.083188  
2003-01-08 08:18:09 51°19.492 2°50.757 7.254073 3.114274 31.064258  
2003-01-08 08:18:13 51°19.505 2°50.742 7.650867 3.113221 31.055782  
2003-01-08 08:18:19 51°19.525 2°50.721 7.532521 3.115853 31.084825  
2003-01-08 08:18:23 51°19.538 2°50.706 7.532521 3.115853 31.084825  
2003-01-08 08:18:29 51°19.558 2°50.685 7.329201 3.114695 31.073616  
2003-01-08 08:18:33 51°19.571 2°50.67 7.729077 3.115116 31.079049  
2003-01-08 08:18:39 51°19.591 2°50.649 7.529597 3.114274 31.068969  
2003-01-08 08:18:43 51°19.604 2°50.635 7.169743 3.114379 31.072487  
2003-01-08 08:18:49 51°19.624 2°50.614 7.409464 3.113958 31.06941  
2003-01-08 08:18:53 51°19.638 2°50.6 7.409464 3.113958 31.06941  
2003-01-08 08:18:59 51°19.658 2°50.579 7.087706 3.113853 31.069033  
2003-01-08 08:19:03 51°19.672 2°50.565 7.610145 3.114064 31.072928  
2003-01-08 08:19:09 51°19.692 2°50.544 7.288567 3.112168 31.052798  
2003-01-08 08:19:14 51°19.709 2°50.526 7.408976 3.113327 31.06715  
2003-01-08 08:19:19 51°19.726 2°50.509 7.129302 3.113221 31.065203  
2003-01-08 08:19:23 51°19.74 2°50.495 7.129302 3.113221 31.065203  
2003-01-08 08:19:29 51°19.76 2°50.474 7.411173 3.112274 31.056315  
2003-01-08 08:19:33 51°19.773 2°50.459 7.571296 3.111853 31.050882  
2003-01-08 08:19:39 51°19.794 2°50.438 7.293409 3.11101 31.042371  
2003-01-08 08:19:43 51°19.808 2°50.424 7.215889 3.114485 31.080719  
2003-01-08 08:19:49 51°19.828 2°50.403 7.179005 3.11459 31.081095  
2003-01-08 08:19:54 51°19.845 2°50.385 7.179005 3.11459 31.081095  
2003-01-08 08:19:59 51°19.862 2°50.368 7.621727 3.11459 31.079524  
2003-01-08 08:20:03 51°19.876 2°50.353 7.701041 3.114274 31.076823  
2003-01-08 08:20:09 51°19.896 2°50.333 7.382656 3.115853 31.092683  
2003-01-08 08:20:13 51°19.91 2°50.318 7.780549 3.116169 31.095383  
2003-01-08 08:20:19 51°19.931 2°50.297 7.3423 3.118064 31.114729  
2003-01-08 08:20:23 51°19.944 2°50.283 7.3423 3.118064 31.114729  
2003-01-08 08:20:29 51°19.965 2°50.263 7.420252 3.117538 31.107346  
2003-01-08 08:20:33 51°19.979 2°50.249 7.49967 3.11838 31.115069  
2003-01-08 08:20:39 51°20 2°50.228 7.664825 3.118591 31.115821  
2003-01-08 08:20:43 51°20.013 2°50.213 7.708963 3.118906 31.119307  
2003-01-08 08:20:49 51°20.034 2°50.192 7.750642 3.120064 31.132089  
2003-01-08 08:20:53 51°20.048 2°50.178 7.750642 3.120064 31.132089  
2003-01-08 08:20:59 51°20.068 2°50.157 7.756226 3.12017 31.133251  
2003-01-08 08:21:03 51°20.082 2°50.143 7.278441 3.120907 31.139812  
2003-01-08 08:21:07 51°20.095 2°50.129 7.286855 3.121433 31.145623  
2003-01-08 08:21:13 51°20.116 2°50.108 7.65184 3.121644 31.145586  
2003-01-08 08:21:19 51°20.137 2°50.087 7.378943 3.123118 31.159492  
2003-01-08 08:21:23 51°20.15 2°50.073 7.378943 3.123118 31.159492  
2003-01-08 08:21:29 51°20.171 2°50.052 7.506593 3.121644 31.141651  
2003-01-08 08:21:34 51°20.188 2°50.034 7.033611 3.122696 31.150909  
2003-01-08 08:21:39 51°20.205 2°50.017 7.19958 3.125855 31.18104  
2003-01-08 08:21:43 51°20.219 2°50.003 7.407365 3.126276 31.180962  
2003-01-08 08:21:49 51°20.24 2°49.982 7.694091 3.129329 31.209924  
2003-01-08 08:21:53 51°20.253 2°49.968 7.694091 3.129329 31.209924  
2003-01-08 08:21:59 51°20.274 2°49.948 7.698757 3.130803 31.219881  
2003-01-08 08:22:03 51°20.288 2°49.933 7.584832 3.132487 31.232159  
2003-01-08 08:22:09 51°20.309 2°49.913 7.790693 3.136067 31.265337  
2003-01-08 08:22:14 51°20.326 2°49.895 7.834502 3.135646 31.25517  
2003-01-08 08:22:19 51°20.343 2°49.878 7.802048 3.138278 31.278676  
2003-01-08 08:22:23 51°20.357 2°49.864 7.802048 3.138278 31.278676  
2003-01-08 08:22:29 51°20.378 2°49.844 8.088373 3.140489 31.296744  
2003-01-08 08:22:33 51°20.391 2°49.83 7.939657 3.142068 31.309421  
2003-01-08 08:22:39 51°20.412 2°49.809 7.750496 3.143858 31.322838  
2003-01-08 08:22:43 51°20.425 2°49.795 7.722713 3.1447 31.325806  
2003-01-08 08:22:49 51°20.446 2°49.774 7.809472 3.147122 31.34855  
2003-01-08 08:22:53 51°20.459 2°49.759 7.809472 3.147122 31.34855  
2003-01-08 08:22:59 51°20.479 2°49.739 8.25419 3.148596 31.358475  
2003-01-08 08:23:03 51°20.493 2°49.724 7.946677 3.150701 31.374569  
2003-01-08 08:23:09 51°20.513 2°49.703 7.522775 3.152491 31.385597  
2003-01-08 08:23:19 51°20.546 2°49.669 8.190027 3.158808 31.438584  
2003-01-08 08:23:23 51°20.559 2°49.656 8.190027 3.158808 31.438584  
2003-01-08 08:23:27 51°20.573 2°49.642 8.34394 3.160809 31.452704  
2003-01-08 08:23:33 51°20.593 2°49.622 8.333113 3.15944 31.428139  
2003-01-08 08:23:39 51°20.613 2°49.601 7.99933 3.164704 31.476604  
2003-01-08 08:23:47 51°20.64 2°49.575 7.77851 3.169126 31.510236  
2003-01-08 08:23:51 51°20.654 2°49.561 7.515659 3.171758 31.516236  
2003-01-08 08:23:57 51°20.675 2°49.544 7.802922 3.17976 31.57889  
2003-01-08 08:24:02 51°20.692 2°49.529 7.847498 3.185972 31.61943  
2003-01-08 08:24:07 51°20.71 2°49.515 7.85288 3.191026 31.647995  
2003-01-08 08:24:11 51°20.725 2°49.504 7.85288 3.191026 31.647995  
2003-01-08 08:24:17 51°20.746 2°49.488 7.699097 3.19587 31.676593  
2003-01-08 08:24:21 51°20.761 2°49.477 7.779433 3.19966 31.697574  
2003-01-08 08:24:27 51°20.782 2°49.461 7.740297 3.203135 31.720621  
2003-01-08 08:24:31 51°20.797 2°49.451 8.017225 3.204609 31.725685  
2003-01-08 08:24:37 51°20.819 2°49.436 7.778462 3.206609 31.738896  
2003-01-08 08:24:42 51°20.837 2°49.423 7.778462 3.206609 31.738896  
2003-01-08 08:24:47 51°20.855 2°49.412 8.253612 3.207873 31.748781  
2003-01-08 08:24:51 51°20.87 2°49.402 8.37237 3.209242 31.757439  
2003-01-08 08:24:57 51°20.892 2°49.388 7.937284 3.20861 31.746552  
2003-01-08 08:25:01 51°20.907 2°49.379 7.579574 3.211242 31.774605  
2003-01-08 08:25:07 51°20.929 2°49.365 8.412276 3.211032 31.771504  
2003-01-08 08:25:11 51°20.944 2°49.357 8.412276 3.211032 31.771504  
2003-01-08 08:25:17 51°20.966 2°49.345 8.414102 3.211348 31.774172  
2003-01-08 08:25:22 51°20.985 2°49.335 8.529591 3.211874 31.778354  
2003-01-08 08:25:27 51°21.004 2°49.326 7.896453 3.211769 31.776407  
2003-01-08 08:25:31 51°21.019 2°49.318 8.054501 3.212506 31.785277  
2003-01-08 08:25:37 51°21.042 2°49.308 7.975574 3.211242 31.769846  
2003-01-08 08:25:43 51°21.064 2°49.297 7.975574 3.211242 31.769846  
2003-01-08 08:25:47 51°21.079 2°49.289 7.814808 3.212295 31.781383  
2003-01-08 08:25:51 51°21.094 2°49.283 7.814372 3.212506 31.78369  
2003-01-08 08:25:57 51°21.117 2°49.272 7.973347 3.211558 31.770927  
2003-01-08 08:26:01 51°21.132 2°49.266 8.050779 3.211453 31.77136  
2003-01-08 08:26:07 51°21.155 2°49.256 8.129758 3.211137 31.769485  
2003-01-08 08:26:11 51°21.17 2°49.249 8.129758 3.211137 31.769485  
2003-01-08 08:26:17 51°21.193 2°49.239 8.246191 3.212085 31.779869  
2003-01-08 08:26:23 51°21.215 2°49.229 8.24436 3.212085 31.780662  
2003-01-08 08:26:27 51°21.231 2°49.223 8.046332 3.212401 31.78571  
2003-01-08 08:26:31 51°21.246 2°49.216 7.807482 3.213348 31.796096  
2003-01-08 08:26:37 51°21.269 2°49.206 7.926243 3.211874 31.780735  
2003-01-08 08:26:43 51°21.292 2°49.197 7.926243 3.211874 31.780735  
2003-01-08 08:26:47 51°21.307 2°49.191 7.88618 3.213138 31.796169  
2003-01-08 08:26:51 51°21.323 2°49.186 7.766957 3.211663 31.77922  
2003-01-08 08:26:58 51°21.35 2°49.177 8.161323 3.211663 31.77922  
2003-01-08 08:27:01 51°21.361 2°49.174 8.004167 3.212085 31.786217  
2003-01-08 08:27:07 51°21.384 2°49.167 7.963426 3.212611 31.791987  
2003-01-08 08:27:11 51°21.4 2°49.163 7.963426 3.212611 31.791987  
2003-01-08 08:27:17 51°21.423 2°49.158 7.924064 3.211874 31.784702  
2003-01-08 08:27:22 51°21.443 2°49.153 8.281841 3.212716 31.793141  
2003-01-08 08:27:27 51°21.462 2°49.149 8.438177 3.21219 31.787371  
2003-01-08 08:27:31 51°21.478 2°49.146 7.765063 3.213138 31.799345  
2003-01-08 08:27:37 51°21.501 2°49.141 8.122227 3.21377 31.807064  
2003-01-08 08:27:43 51°21.524 2°49.136 8.122227 3.21377 31.807064  
2003-01-08 08:27:47 51°21.54 2°49.132 7.886132 3.213032 31.798191  
2003-01-08 08:27:51 51°21.556 2°49.129 8.201987 3.213348 31.801653  
2003-01-08 08:27:57 51°21.579 2°49.124 8.003393 3.213032 31.798191  
2003-01-08 08:28:01 51°21.595 2°49.121 8.004457 3.213559 31.806344  
2003-01-08 08:28:07 51°21.618 2°49.116 7.726891 3.212717 31.796316  
2003-01-08 08:28:11 51°21.634 2°49.113 7.726891 3.212717 31.796316  
2003-01-08 08:28:17 51°21.657 2°49.108 7.767248 3.214085 31.809732  
2003-01-08 08:28:22 51°21.677 2°49.105 7.845898 3.21398 31.809372  
2003-01-08 08:28:27 51°21.696 2°49.101 8.004022 3.215033 31.820915  
2003-01-08 08:28:31 51°21.712 2°49.098 8.401076 3.214085 31.810527  
2003-01-08 08:28:37 51°21.736 2°49.093 7.687335 3.215244 31.823223  
2003-01-08 08:28:43 51°21.759 2°49.088 7.687335 3.215244 31.823223  
2003-01-08 08:28:47 51°21.775 2°49.085 7.607955 3.215349 31.823583  
2003-01-08 08:28:51 51°21.79 2°49.081 8.165087 3.215138 31.821274  
2003-01-08 08:28:58 51°21.818 2°49.076 7.729126 3.214191 31.809298  
2003-01-08 08:29:03 51°21.837 2°49.071 8.165087 3.214085 31.808938  
2003-01-08 08:29:07 51°21.853 2°49.068 7.60995 3.214928 31.818171  
2003-01-08 08:29:11 51°21.869 2°49.065 7.60995 3.214928 31.818171  
2003-01-08 08:29:19 51°21.9 2°49.059 7.610486 3.216402 31.834331  
2003-01-08 08:29:23 51°21.916 2°49.056 7.610486 3.216402 31.834331  
2003-01-08 08:29:27 51°21.932 2°49.053 7.451436 3.216191 31.831227  
2003-01-08 08:29:33 51°21.956 2°49.049 7.452168 3.216191 31.832022  
2003-01-08 08:29:39 51°21.979 2°49.047 7.651256 3.216613 31.835844  
2003-01-08 08:29:47 51°22.011 2°49.044 8.32522 3.216823 31.837358  
2003-01-08 08:29:51 51°22.026 2°49.042 8.209027 3.216613 31.835049  
2003-01-08 08:29:57 51°22.05 2°49.04 8.257418 3.217771 31.848541  
2003-01-08 08:30:01 51°22.066 2°49.039 8.026703 3.21756 31.845438  
2003-01-08 08:30:07 51°22.089 2°49.037 8.302403 3.216297 31.829997  
2003-01-08 08:30:11 51°22.105 2°49.037 8.302403 3.216297 31.829997  
2003-01-08 08:30:17 51°22.129 2°49.035 7.864515 3.218087 31.850414  
2003-01-08 08:30:22 51°22.149 2°49.034 7.942368 3.217981 31.846874  
2003-01-08 08:30:27 51°22.168 2°49.032 8.062282 3.218824 31.853722  
2003-01-08 08:30:31 51°22.184 2°49.031 8.180428 3.219456 31.855876  
2003-01-08 08:30:37 51°22.208 2°49.031 7.464461 3.221772 31.878083  
2003-01-08 08:30:43 51°22.231 2°49.03 7.464461 3.221772 31.878083  
2003-01-08 08:30:47 51°22.247 2°49.029 8.019063 3.221246 31.869926  
2003-01-08 08:30:51 51°22.263 2°49.029 8.061218 3.222088 31.879953  
2003-01-08 08:30:58 51°22.29 2°49.027 8.389826 3.222088 31.880749  
2003-01-08 08:31:01 51°22.302 2°49.026 7.937429 3.221562 31.87657  
2003-01-08 08:31:07 51°22.325 2°49.024 8.22913 3.222509 31.887753  
2003-01-08 08:31:11 51°22.341 2°49.023 8.22913 3.222509 31.887753  
2003-01-08 08:31:17 51°22.365 2°49.022 8.395259 3.223036 31.890339  
2003-01-08 08:31:22 51°22.384 2°49.02 7.762927 3.222615 31.888111  
2003-01-08 08:31:27 51°22.404 2°49.019 8.110155 3.223562 31.89611  
2003-01-08 08:31:31 51°22.42 2°49.017 8.143033 3.225984 31.911506  
2003-01-08 08:31:37 51°22.443 2°49.016 8.020224 3.22988 31.942247  
2003-01-08 08:31:43 51°22.467 2°49.014 8.020224 3.22988 31.942247  
2003-01-08 08:31:47 51°22.483 2°49.013 7.938204 3.232197 31.957268  
2003-01-08 08:31:51 51°22.499 2°49.012 8.013018 3.230722 31.933161  
2003-01-08 08:31:58 51°22.526 2°49.011 7.772297 3.235882 31.985678  
2003-01-08 08:32:01 51°22.538 2°49.01 7.851328 3.233882 31.966956  
2003-01-08 08:32:07 51°22.561 2°49.009 7.533544 3.23504 31.982032  
2003-01-08 08:32:11 51°22.577 2°49.008 7.533544 3.23504 31.982032  
2003-01-08 08:32:17 51°22.601 2°49.006 7.85065 3.23346 31.96792  
2003-01-08 08:32:22 51°22.621 2°49.005 7.741366 3.233882 31.974924  
2003-01-08 08:32:27 51°22.64 2°49.004 8.073637 3.232513 31.963915  
2003-01-08 08:32:31 51°22.656 2°49.003 8.123144 3.232197 31.962845  
2003-01-08 08:32:37 51°22.679 2°49.002 8.207291 3.233039 31.972073  
2003-01-08 08:32:43 51°22.703 2°49.001 8.207291 3.233039 31.972073  
2003-01-08 08:32:47 51°22.718 2°49 8.167547 3.231249 31.954854  
2003-01-08 08:32:51 51°22.734 2°48.999 8.127345 3.233987 31.983253  
2003-01-08 08:32:58 51°22.761 2°48.997 8.008278 3.235461 31.992226  
2003-01-08 08:33:01 51°22.773 2°48.997 8.090595 3.238831 32.021956  
2003-01-08 08:33:07 51°22.797 2°48.995 7.896404 3.240516 32.032429  
2003-01-08 08:33:11 51°22.812 2°48.995 7.896404 3.240516 32.032429  
2003-01-08 08:33:17 51°22.836 2°48.993 8.219152 3.241569 32.038373  
2003-01-08 08:33:22 51°22.856 2°48.993 7.830476 3.243359 32.055581  
2003-01-08 08:33:27 51°22.875 2°48.991 8.080643 3.243991 32.060104  
2003-01-08 08:33:31 51°22.891 2°48.99 8.048797 3.244412 32.064716  
2003-01-08 08:33:37 51°22.914 2°48.988 8.134634 3.244096 32.05966  
2003-01-08 08:33:43 51°22.938 2°48.987 8.134634 3.244096 32.05966  
2003-01-08 08:33:47 51°22.953 2°48.984 7.900619 3.248098 32.100279  
2003-01-08 08:33:51 51°22.969 2°48.983 7.824753 3.248835 32.103554  
2003-01-08 08:33:58 51°22.996 2°48.98 7.787538 3.251994 32.130945  
2003-01-08 08:34:03 51°23.016 2°48.979 7.788169 3.253679 32.141391  
2003-01-08 08:34:07 51°23.032 2°48.977 7.828294 3.256943 32.170722  
2003-01-08 08:34:11 51°23.047 2°48.975 7.828294 3.256943 32.170722  
2003-01-08 08:34:19 51°23.079 2°48.972 8.108658 3.260207 32.19364  
2003-01-08 08:34:23 51°23.094 2°48.972 8.108658 3.260207 32.19364  
2003-01-08 08:34:27 51°23.11 2°48.97 7.951906 3.261366 32.202311  
2003-01-08 08:34:33 51°23.133 2°48.968 8.110831 3.262208 32.210728  
2003-01-08 08:34:39 51°23.156 2°48.965 7.715377 3.263577 32.222504  
2003-01-08 08:34:47 51°23.187 2°48.962 8.309769 3.263051 32.21514  
2003-01-08 08:34:51 51°23.202 2°48.959 8.269221 3.26442 32.228516  
2003-01-08 08:34:57 51°23.226 2°48.957 8.227009 3.264946 32.233476  
2003-01-08 08:35:01 51°23.241 2°48.955 8.422176 3.265052 32.233025  
2003-01-08 08:35:07 51°23.265 2°48.953 8.260068 3.265367 32.23568  
2003-01-08 08:35:11 51°23.28 2°48.95 8.260068 3.265367 32.23568  
2003-01-08 08:35:17 51°23.303 2°48.948 8.415448 3.266526 32.247552  
2003-01-08 08:35:21 51°23.319 2°48.947 7.93864 3.266315 32.244446  
2003-01-08 08:35:27 51°23.342 2°48.945 8.055805 3.265473 32.23523  
2003-01-08 08:35:31 51°23.358 2°48.943 8.087986 3.264209 32.223808  
2003-01-08 08:35:37 51°23.381 2°48.941 7.889814 3.263998 32.223908  
2003-01-08 08:35:43 51°23.404 2°48.939 7.889814 3.263998 32.223908  
2003-01-08 08:35:47 51°23.42 2°48.938 8.24436 3.263156 32.217895  
2003-01-08 08:35:51 51°23.435 2°48.936 7.809423 3.26263 32.212134  
2003-01-08 08:35:57 51°23.458 2°48.934 8.124158 3.261892 32.208874  
2003-01-08 08:36:02 51°23.478 2°48.933 7.767879 3.260418 32.194343  
2003-01-08 08:36:07 51°23.497 2°48.93 7.963281 3.260102 32.192487  
2003-01-08 08:36:11 51°23.513 2°48.929 7.963281 3.260102 32.192487  
2003-01-08 08:36:17 51°23.536 2°48.926 8.281841 3.260102 32.193288  
2003-01-08 08:36:21 51°23.552 2°48.926 7.72383 3.258417 32.180453  
2003-01-08 08:36:27 51°23.575 2°48.923 7.919996 3.259892 32.196589  
2003-01-08 08:36:31 51°23.59 2°48.921 8.196007 3.259154 32.188521  
2003-01-08 08:36:37 51°23.613 2°48.918 7.598658 3.259681 32.195885  
2003-01-08 08:36:42 51°23.633 2°48.917 7.598658 3.259681 32.195885  
2003-01-08 08:36:47 51°23.652 2°48.914 7.949727 3.258839 32.187466  
2003-01-08 08:36:51 51°23.668 2°48.913 7.787878 3.258628 32.18516  
2003-01-08 08:36:57 51°23.691 2°48.911 7.544458 3.258101 32.181799  
2003-01-08 08:37:01 51°23.706 2°48.91 7.738258 3.258839 32.190669  
2003-01-08 08:37:07 51°23.729 2°48.907 7.895677 3.258312 32.187308  
2003-01-08 08:37:11 51°23.745 2°48.906 7.895677 3.258312 32.187308  
2003-01-08 08:37:17 51°23.768 2°48.904 7.820727 3.259049 32.197781  
2003-01-08 08:37:20 51°23.78 2°48.903 7.945951 3.257996 32.188656  
2003-01-08 08:37:27 51°23.807 2°48.9 7.635593 3.258102 32.195417  
2003-01-08 08:37:31 51°23.822 2°48.899 7.6833 3.257259 32.188596  
2003-01-08 08:37:37 51°23.845 2°48.896 7.569299 3.257259 32.191802  
2003-01-08 08:37:41 51°23.861 2°48.894 7.569299 3.257259 32.191802  
2003-01-08 08:37:47 51°23.884 2°48.892 8.054017 3.258102 32.203433  
2003-01-08 08:37:51 51°23.899 2°48.89 7.542558 3.258628 32.206795  
2003-01-08 08:37:58 51°23.926 2°48.887 8.060493 3.259365 32.211661  
2003-01-08 08:38:03 51°23.946 2°48.885 8.414727 3.261261 32.226805  
2003-01-08 08:38:07 51°23.961 2°48.885 7.664144 3.262524 32.23583  
2003-01-08 08:38:11 51°23.976 2°48.883 7.664144 3.262524 32.23583  
2003-01-08 08:38:17 51°23.999 2°48.882 8.06059 3.264104 32.246707  
2003-01-08 08:38:22 51°24.018 2°48.88 8.097985 3.265473 32.25688  
2003-01-08 08:38:27 51°24.037 2°48.878 8.295951 3.266947 32.267402  
2003-01-08 08:38:31 51°24.053 2°48.877 8.340475 3.267579 32.27191  
2003-01-08 08:38:37 51°24.076 2°48.875 8.465221 3.26779 32.27261  
2003-01-08 08:38:43 51°24.099 2°48.872 8.465221 3.26779 32.27261  
2003-01-08 08:38:47 51°24.114 2°48.871 8.393191 3.268948 32.284487  
2003-01-08 08:38:51 51°24.129 2°48.869 8.277699 3.269369 32.2899  
2003-01-08 08:38:58 51°24.155 2°48.866 7.884242 3.268948 32.283684  
2003-01-08 08:39:01 51°24.166 2°48.864 7.884678 3.26958 32.289797  
2003-01-08 08:39:07 51°24.189 2°48.861 8.357074 3.270107 32.293954  
2003-01-08 08:39:11 51°24.204 2°48.858 8.357074 3.270107 32.293954  
2003-01-08 08:39:19 51°24.236 2°48.853 8.071898 3.272845 32.315085  
2003-01-08 08:39:23 51°24.251 2°48.85 8.071898 3.272845 32.315085  
2003-01-08 08:39:27 51°24.266 2°48.847 7.94963 3.274003 32.323745  
2003-01-08 08:39:33 51°24.289 2°48.843 7.792537 3.274845 32.330553  
2003-01-08 08:39:39 51°24.312 2°48.838 8.582584 3.275056 32.332054  
2003-01-08 08:39:47 51°24.343 2°48.833 8.390066 3.275583 32.339423  
2003-01-08 08:39:51 51°24.358 2°48.83 7.878038 3.274951 32.333312  
2003-01-08 08:39:57 51°24.381 2°48.826 8.356834 3.275688 32.345399  
2003-01-08 08:40:01 51°24.396 2°48.824 8.162385 3.275056 32.338484  
2003-01-08 08:40:07 51°24.419 2°48.82 8.32753 3.275056 32.339287  
2003-01-08 08:40:11 51°24.435 2°48.817 8.32753 3.275056 32.339287  
2003-01-08 08:40:17 51°24.458 2°48.814 8.331332 3.276109 32.351618  
2003-01-08 08:40:21 51°24.473 2°48.811 8.454943 3.277162 32.361535  
2003-01-08 08:40:27 51°24.495 2°48.809 8.697724 3.276846 32.35486  
2003-01-08 08:40:31 51°24.511 2°48.806 8.31516 3.278742 32.373193  
2003-01-08 08:40:37 51°24.534 2°48.802 8.639653 3.278847 32.371127  
2003-01-08 08:40:41 51°24.55 2°48.799 8.639653 3.278847 32.371127  
2003-01-08 08:40:47 51°24.573 2°48.795 8.17406 3.279795 32.377476  
2003-01-08 08:40:51 51°24.589 2°48.792 8.335808 3.281164 32.386824  
2003-01-08 08:40:57 51°24.612 2°48.788 8.181972 3.281269 32.383954  
2003-01-08 08:41:02 51°24.632 2°48.785 8.654547 3.28327 32.398602  
2003-01-08 08:41:07 51°24.651 2°48.781 8.418043 3.284428 32.404031  
2003-01-08 08:41:11 51°24.667 2°48.779 8.418043 3.284428 32.404031  
2003-01-08 08:41:17 51°24.69 2°48.775 8.534197 3.285903 32.411304  
2003-01-08 08:41:23 51°24.713 2°48.77 8.298647 3.287166 32.418686  
2003-01-08 08:41:27 51°24.729 2°48.768 8.105664 3.286956 32.412362  
2003-01-08 08:41:31 51°24.745 2°48.765 8.31025 3.287693 32.41479  
2003-01-08 08:41:37 51°24.768 2°48.762 8.512173 3.288114 32.417786  
2003-01-08 08:41:41 51°24.783 2°48.758 8.512173 3.288114 32.417786  
2003-01-08 08:41:47 51°24.806 2°48.755 8.08615 3.287693 32.413182  
2003-01-08 08:41:51 51°24.822 2°48.752 8.681931 3.288746 32.423888  
2003-01-08 08:41:57 51°24.845 2°48.748 8.058609 3.288219 32.417329  
2003-01-08 08:42:01 51°24.86 2°48.745 8.69825 3.289904 32.433331  
2003-01-08 08:42:07 51°24.883 2°48.742 8.395691 3.290536 32.434605  
2003-01-08 08:42:11 51°24.899 2°48.739 8.395691 3.290536 32.434605  
2003-01-08 08:42:17 51°24.922 2°48.735 8.362847 3.292116 32.44704  
2003-01-08 08:42:22 51°24.941 2°48.733 8.804347 3.292958 32.449809  
2003-01-08 08:42:27 51°24.961 2°48.729 8.531606 3.293274 32.448435  
2003-01-08 08:42:31 51°24.976 2°48.726 8.419966 3.294854 32.458451  
2003-01-08 08:42:37 51°24.999 2°48.721 8.183564 3.297276 32.476859  
2003-01-08 08:42:41 51°25.015 2°48.719 8.183564 3.297276 32.476859  
2003-01-08 08:42:47 51°25.038 2°48.713 8.341486 3.299066 32.488362  
2003-01-08 08:42:52 51°25.057 2°48.71 8.418908 3.300225 32.493768  
2003-01-08 08:42:57 51°25.076 2°48.705 8.377468 3.302226 32.509173  
2003-01-08 08:43:01 51°25.092 2°48.701 8.33576 3.303068 32.51354  
2003-01-08 08:43:07 51°25.115 2°48.696 8.80363 3.304227 32.522159  
2003-01-08 08:43:11 51°25.13 2°48.692 8.80363 3.304227 32.522159  
2003-01-08 08:43:17 51°25.153 2°48.687 9.033969 3.304964 32.52779  
2003-01-08 08:43:21 51°25.169 2°48.683 8.205314 3.305385 32.529972  
2003-01-08 08:43:27 51°25.192 2°48.679 8.437841 3.305912 32.535718  
2003-01-08 08:43:31 51°25.207 2°48.675 8.15534 3.305912 32.537328  
2003-01-08 08:43:37 51°25.231 2°48.67 8.311742 3.305701 32.53664  
2003-01-08 08:43:41 51°25.246 2°48.666 8.311742 3.305701 32.53664  
2003-01-08 08:43:47 51°25.269 2°48.661 8.582488 3.305385 32.534802  
2003-01-08 08:43:51 51°25.284 2°48.657 8.582153 3.304964 32.53423  
2003-01-08 08:43:57 51°25.308 2°48.651 8.152878 3.304648 32.533197  
2003-01-08 08:44:02 51°25.327 2°48.647 8.432652 3.3037 32.526072  
2003-01-08 08:44:07 51°25.346 2°48.642 7.840709 3.303595 32.528949  
2003-01-08 08:44:11 51°25.361 2°48.638 7.840709 3.303595 32.528949  
2003-01-08 08:44:18 51°25.388 2°48.632 8.51414 3.303068 32.527226  
2003-01-08 08:44:22 51°25.403 2°48.629 8.118557 3.302542 32.524699  
2003-01-08 08:44:27 51°25.422 2°48.624 8.39247 3.302015 32.518144  
2003-01-08 08:44:31 51°25.438 2°48.621 8.429673 3.302437 32.522743  
2003-01-08 08:44:37 51°25.461 2°48.614 8.293832 3.302752 32.524582  
2003-01-08 08:44:43 51°25.484 2°48.609 8.293832 3.302752 32.524582  
2003-01-08 08:44:47 51°25.499 2°48.605 8.302836 3.303174 32.526765  
2003-01-08 08:44:51 51°25.515 2°48.602 8.299899 3.303174 32.527571  
2003-01-08 08:44:57 51°25.538 2°48.597 8.213704 3.302752 32.522166  
2003-01-08 08:45:02 51°25.557 2°48.593 8.287331 3.302752 32.523777  
2003-01-08 08:45:07 51°25.576 2°48.588 8.559378 3.302015 32.517338  
2003-01-08 08:45:11 51°25.592 2°48.584 8.559378 3.302015 32.517338  
2003-01-08 08:45:17 51°25.615 2°48.579 7.879783 3.301805 32.51826  
2003-01-08 08:45:21 51°25.63 2°48.575 8.024963 3.300962 32.511475  
2003-01-08 08:45:27 51°25.654 2°48.57 7.937817 3.300014 32.505151  
2003-01-08 08:45:31 51°25.669 2°48.566 7.773074 3.299382 32.501471  
2003-01-08 08:45:37 51°25.692 2°48.56 7.924839 3.298435 32.495144  
2003-01-08 08:45:41 51°25.707 2°48.556 7.924839 3.298435 32.495144  
2003-01-08 08:45:47 51°25.73 2°48.551 8.437745 3.297171 32.489391  
2003-01-08 08:45:51 51°25.745 2°48.546 7.758751 3.295697 32.480529  
2003-01-08 08:45:57 51°25.769 2°48.541 7.874694 3.293801 32.468672  
2003-01-08 08:46:01 51°25.784 2°48.536 8.143998 3.292011 32.455546  
2003-01-08 08:46:07 51°25.807 2°48.53 8.023222 3.290958 32.450474  
2003-01-08 08:46:11 51°25.823 2°48.526 8.023222 3.290958 32.450474  
2003-01-08 08:46:17 51°25.846 2°48.52 7.98138 3.289589 32.441948  
2003-01-08 08:46:20 51°25.857 2°48.517 7.897858 3.289273 32.441713  
2003-01-08 08:46:27 51°25.884 2°48.511 8.367416 3.288114 32.433877  
2003-01-08 08:46:31 51°25.9 2°48.507 8.050102 3.287167 32.428342  
2003-01-08 08:46:37 51°25.923 2°48.502 8.122034 3.286114 32.423264  
2003-01-08 08:46:41 51°25.939 2°48.499 8.122034 3.286114 32.423264  
2003-01-08 08:46:47 51°25.962 2°48.493 7.959844 3.285482 32.419573  
2003-01-08 08:46:52 51°25.981 2°48.489 8.273123 3.285166 32.417727  
2003-01-08 08:46:57 51°26.001 2°48.485 8.032022 3.28485 32.416686  
2003-01-08 08:47:01 51°26.017 2°48.482 8.307843 3.283797 32.409995  
2003-01-08 08:47:07 51°26.04 2°48.477 8.288053 3.28327 32.409065  
2003-01-08 08:47:11 51°26.055 2°48.474 8.288053 3.28327 32.409065  
2003-01-08 08:47:17 51°26.079 2°48.468 8.105616 3.282533 32.405024  
2003-01-08 08:47:22 51°26.098 2°48.465 8.306014 3.281901 32.40294  
2003-01-08 08:47:27 51°26.118 2°48.46 7.950598 3.281269 32.399245  
2003-01-08 08:47:31 51°26.133 2°48.456 7.835132 3.281269 32.40005  
2003-01-08 08:47:37 51°26.156 2°48.451 8.081803 3.280427 32.39566  
2003-01-08 08:47:41 51°26.172 2°48.447 8.081803 3.280427 32.39566  
2003-01-08 08:47:47 51°26.195 2°48.442 7.966475 3.280427 32.397271  
2003-01-08 08:47:51 51°26.211 2°48.438 7.972525 3.280216 32.39577  
2003-01-08 08:47:57 51°26.234 2°48.434 8.095715 3.281059 32.405799  
2003-01-08 08:48:02 51°26.253 2°48.428 7.743794 3.281375 32.408452  
2003-01-08 08:48:07 51°26.273 2°48.425 8.145205 3.282639 32.420675  
2003-01-08 08:48:11 51°26.289 2°48.421 8.145205 3.282639 32.420675  
2003-01-08 08:48:17 51°26.312 2°48.416 7.908807 3.284008 32.430827  
2003-01-08 08:48:21 51°26.327 2°48.413 7.825868 3.285061 32.437519  
2003-01-08 08:48:27 51°26.351 2°48.408 7.667937 3.28664 32.450778  
2003-01-08 08:48:31 51°26.366 2°48.405 8.115853 3.287904 32.458965  
2003-01-08 08:48:37 51°26.39 2°48.401 7.807288 3.288957 32.465652  
2003-01-08 08:48:43 51°26.413 2°48.396 7.807288 3.288957 32.465652  
2003-01-08 08:48:47 51°26.429 2°48.393 7.887925 3.289905 32.472797  
2003-01-08 08:48:51 51°26.444 2°48.39 8.477034 3.290747 32.479596  
2003-01-08 08:48:58 51°26.472 2°48.384 8.4706 3.291063 32.482247  
2003-01-08 08:49:01 51°26.484 2°48.381 7.951373 3.291695 32.485127  
2003-01-08 08:49:07 51°26.507 2°48.376 8.297925 3.29317 32.498031  
2003-01-08 08:49:11 51°26.523 2°48.373 8.297925 3.29317 32.498031  
2003-01-08 08:49:17 51°26.547 2°48.368 8.413381 3.294539 32.50736  
2003-01-08 08:49:23 51°26.57 2°48.363 8.447017 3.29517 32.511851  
2003-01-08 08:49:27 51°26.586 2°48.36 7.811461 3.295276 32.514617  
2003-01-08 08:49:31 51°26.601 2°48.356 8.052761 3.294855 32.513237  
2003-01-08 08:49:37 51°26.625 2°48.352 7.970637 3.293801 32.506558  
2003-01-08 08:49:43 51°26.648 2°48.346 7.970637 3.293801 32.506558  
2003-01-08 08:49:47 51°26.664 2°48.343 8.683989 3.29317 32.505294  
2003-01-08 08:49:51 51°26.68 2°48.34 8.342111 3.292538 32.503222  
2003-01-08 08:49:58 51°26.707 2°48.335 8.276832 3.292433 32.506914  
2003-01-08 08:50:01 51°26.719 2°48.332 8.52321 3.292433 32.506914  
2003-01-08 08:50:07 51°26.743 2°48.327 8.448266 3.292643 32.510027  
2003-01-08 08:50:11 51°26.758 2°48.325 8.448266 3.292643 32.510027  
2003-01-08 08:50:17 51°26.782 2°48.32 8.327193 3.29317 32.517407  
2003-01-08 08:50:21 51°26.798 2°48.316 8.562879 3.294855 32.533428  
2003-01-08 08:50:27 51°26.821 2°48.311 8.500078 3.29654 32.545407  
2003-01-08 08:50:31 51°26.837 2°48.308 8.330803 3.298857 32.559447  
2003-01-08 08:50:37 51°26.86 2°48.303 8.3424 3.300752 32.574531  
2003-01-08 08:50:41 51°26.876 2°48.3 8.3424 3.300752 32.574531  
2003-01-08 08:50:47 51°26.899 2°48.295 8.629402 3.302332 32.586155  
2003-01-08 08:50:51 51°26.915 2°48.291 8.283719 3.30349 32.597212  
2003-01-08 08:50:58 51°26.942 2°48.283 8.50627 3.304754 32.61023  
2003-01-08 08:51:03 51°26.961 2°48.276 8.126814 3.305597 32.61783  
2003-01-08 08:51:07 51°26.976 2°48.27 8.311406 3.306966 32.627952  
2003-01-08 08:51:11 51°26.992 2°48.264 8.311406 3.306966 32.627952  
2003-01-08 08:51:17 51°27.015 2°48.253 8.286127 3.309388 32.648783  
2003-01-08 08:51:23 51°27.038 2°48.244 8.634528 3.311916 32.668331  
2003-01-08 08:51:27 51°27.053 2°48.236 8.330659 3.31497 32.692012  
2003-01-08 08:51:31 51°27.068 2°48.23 8.911844 3.32013 32.72655  
2003-01-08 08:51:37 51°27.091 2°48.218 8.539234 3.32845 32.777731  
2003-01-08 08:51:42 51°27.109 2°48.207 8.539234 3.32845 32.777731  
2003-01-08 08:51:47 51°27.129 2°48.198 8.637354 3.337823 32.832208  
2003-01-08 08:51:51 51°27.144 2°48.189 8.426405 3.347197 32.88982  
2003-01-08 08:51:58 51°27.17 2°48.176 8.715762 3.355517 32.937478  
2003-01-08 08:52:03 51°27.189 2°48.166 8.930776 3.364575 32.996319  
2003-01-08 08:52:07 51°27.204 2°48.159 8.502286 3.371631 33.038174  
2003-01-08 08:52:11 51°27.219 2°48.15 8.502286 3.371631 33.038174  
2003-01-08 08:52:17 51°27.241 2°48.14 8.275483 3.376792 33.069922  
2003-01-08 08:52:22 51°27.26 2°48.128 8.787433 3.382164 33.103926  
2003-01-08 08:52:27 51°27.279 2°48.121 8.677814 3.387009 33.132178  
2003-01-08 08:52:31 51°27.294 2°48.111 8.84499 3.390169 33.150234  
2003-01-08 08:52:37 51°27.316 2°48.102 8.809124 3.393012 33.165662  
2003-01-08 08:52:43 51°27.339 2°48.088 8.809124 3.393012 33.165662  
2003-01-08 08:52:47 51°27.354 2°48.082 8.699351 3.395435 33.180572  
2003-01-08 08:52:51 51°27.369 2°48.072 8.629786 3.397647 33.19644  
2003-01-08 08:52:58 51°27.396 2°48.06 8.554966 3.398911 33.203647  
2003-01-08 08:53:01 51°27.407 2°48.053 8.558611 3.401333 33.220165  
2003-01-08 08:53:07 51°27.43 2°48.042 8.804729 3.402913 33.22998  
2003-01-08 08:53:11 51°27.445 2°48.034 8.804729 3.402913 33.22998  
2003-01-08 08:53:17 51°27.468 2°48.023 8.53175 3.404283 33.237509  
2003-01-08 08:53:22 51°27.487 2°48.013 8.88637 3.405547 33.245519  
2003-01-08 08:53:27 51°27.506 2°48.004 8.69112 3.407337 33.255984  
2003-01-08 08:53:31 51°27.521 2°47.995 8.577071 3.408812 33.266272  
2003-01-08 08:53:37 51°27.544 2°47.985 9.316977 3.409971 33.273947  
2003-01-08 08:53:43 51°27.566 2°47.972 9.316977 3.409971 33.273947  
2003-01-08 08:53:47 51°27.582 2°47.966 9.012163 3.411234 33.280323  
2003-01-08 08:53:51 51°27.596 2°47.955 8.707916 3.412815 33.293372  
2003-01-08 08:53:57 51°27.619 2°47.945 8.759568 3.41292 33.292073  
2003-01-08 08:54:03 51°27.641 2°47.931 8.846279 3.413973 33.300229  
2003-01-08 08:54:07 51°27.656 2°47.925 8.571318 3.414605 33.305447  
2003-01-08 08:54:11 51°27.671 2°47.916 8.571318 3.414605 33.305447  
2003-01-08 08:54:17 51°27.694 2°47.905 8.650907 3.415237 33.309038  
2003-01-08 08:54:20 51°27.705 2°47.898 8.997732 3.416817 33.321267  
2003-01-08 08:54:27 51°27.731 2°47.884 8.995588 3.41766 33.322258  
2003-01-08 08:54:31 51°27.746 2°47.875 8.843987 3.419661 33.336603  
2003-01-08 08:54:37 51°27.768 2°47.864 8.656893 3.420714 33.34231  
2003-01-08 08:54:41 51°27.783 2°47.855 8.656893 3.420714 33.34231  
2003-01-08 08:54:47 51°27.806 2°47.844 8.868475 3.421557 33.347363  
2003-01-08 08:54:51 51°27.821 2°47.836 9.116938 3.421978 33.351923  
2003-01-08 08:54:58 51°27.847 2°47.823 8.663261 3.422505 33.357623  
2003-01-08 08:55:03 51°27.866 2°47.812 8.95056 3.422505 33.357623  
2003-01-08 08:55:07 51°27.881 2°47.805 9.0403 3.423453 33.364628  
2003-01-08 08:55:11 51°27.896 2°47.797 9.0403 3.423453 33.364628  
2003-01-08 08:55:17 51°27.918 2°47.785 8.971482 3.424928 33.373262  
2003-01-08 08:55:22 51°27.937 2°47.773 9.017115 3.426929 33.385964  
2003-01-08 08:55:27 51°27.957 2°47.764 8.630121 3.42872 33.394755  
2003-01-08 08:55:31 51°27.971 2°47.753 8.71514 3.431353 33.406959  
2003-01-08 08:55:37 51°27.994 2°47.743 9.033683 3.432828 33.413139  
2003-01-08 08:55:43 51°28.017 2°47.73 9.033683 3.432828 33.413139  
2003-01-08 08:55:47 51°28.031 2°47.723 8.721024 3.43504 33.424031  
2003-01-08 08:55:51 51°28.046 2°47.715 8.76234 3.437147 33.437033  
2003-01-08 08:55:57 51°28.068 2°47.703 9.118554 3.438095 33.43914  
2003-01-08 08:56:02 51°28.087 2°47.693 9.0054 3.439359 33.446287  
2003-01-08 08:56:07 51°28.106 2°47.683 8.576496 3.440517 33.453107  
2003-01-08 08:56:11 51°28.12 2°47.676 8.576496 3.440517 33.453107  
2003-01-08 08:56:17 51°28.142 2°47.664 8.852389 3.441781 33.461877  
2003-01-08 08:56:22 51°28.161 2°47.653 8.775676 3.441887 33.459761  
2003-01-08 08:56:27 51°28.179 2°47.643 8.857831 3.442729 33.465606  
2003-01-08 08:56:35 51°28.209 2°47.626 8.821352 3.443993 33.475185  
2003-01-08 08:56:39 51°28.224 2°47.619 9.057862 3.44452 33.475991  
2003-01-08 08:56:45 51°28.245 2°47.605 9.280282 3.444836 33.477775  
2003-01-08 08:56:51 51°28.267 2°47.594 8.90736 3.445784 33.485567  
2003-01-08 08:56:55 51°28.282 2°47.584 8.832336 3.445784 33.483941  
2003-01-08 08:56:59 51°28.298 2°47.578 8.832336 3.445784 33.483941  
2003-01-08 08:57:05 51°28.32 2°47.564 8.910508 3.446837 33.492056  
2003-01-08 08:57:11 51°28.343 2°47.554 9.145173 3.447575 33.496759  
2003-01-08 08:57:15 51°28.357 2°47.545 8.912082 3.448102 33.500002  
2003-01-08 08:57:21 51°28.38 2°47.533 9.150305 3.448734 33.505196  
2003-01-08 08:57:25 51°28.395 2°47.526 9.188736 3.44926 33.505997  
2003-01-08 08:57:31 51°28.417 2°47.513 9.188736 3.44926 33.505997  
2003-01-08 08:57:39 51°28.446 2°47.498 9.149972 3.450314 33.514108  
2003-01-08 08:57:43 51°28.461 2°47.49 9.033874 3.450946 33.5193  
2003-01-08 08:57:49 51°28.484 2°47.479 9.076466 3.451578 33.523677  
2003-01-08 08:57:55 51°28.506 2°47.469 9.076466 3.451578 33.523677  
2003-01-08 08:57:59 51°28.521 2°47.461 8.964811 3.451683 33.523186  
2003-01-08 08:58:03 51°28.536 2°47.452 8.928344 3.452104 33.526104  
2003-01-08 08:58:09 51°28.558 2°47.442 9.128252 3.45242 33.530327  
2003-01-08 08:58:15 51°28.58 2°47.429 8.701265 3.452631 33.530159  
2003-01-08 08:58:19 51°28.594 2°47.422 8.699255 3.453052 33.53389  
2003-01-08 08:58:23 51°28.609 2°47.415 8.699255 3.453052 33.53389  
2003-01-08 08:58:30 51°28.635 2°47.401 8.738434 3.453368 33.535671  
2003-01-08 08:58:35 51°28.654 2°47.392 8.857688 3.45379 33.538589  
2003-01-08 08:58:39 51°28.669 2°47.383 8.427126 3.454527 33.540845  
2003-01-08 08:58:43 51°28.684 2°47.375 8.661489 3.454949 33.542948  
2003-01-08 08:58:49 51°28.707 2°47.364 8.894147 3.455581 33.547322  
2003-01-08 08:58:53 51°28.722 2°47.355 8.894147 3.455581 33.547322  
2003-01-08 08:58:59 51°28.744 2°47.344 8.77496 3.456002 33.551052  
2003-01-08 08:59:03 51°28.759 2°47.336 8.656701 3.456107 33.550561  
2003-01-08 08:59:09 51°28.782 2°47.325 8.656414 3.456318 33.552833  
2003-01-08 08:59:19 51°28.821 2°47.304 8.73169 3.456634 33.55624  
2003-01-08 08:59:23 51°28.836 2°47.296 8.73169 3.456634 33.55624  
2003-01-08 08:59:29 51°28.859 2°47.284 9.004686 3.456529 33.555918  
2003-01-08 08:59:35 51°28.882 2°47.272 9.043394 3.456423 33.55641  
2003-01-08 08:59:39 51°28.897 2°47.264 9.122263 3.456634 33.559496  
2003-01-08 08:59:43 51°28.912 2°47.257 8.772283 3.45695 33.564533  
2003-01-08 08:59:49 51°28.935 2°47.244 8.928392 3.456739 33.562261  
2003-01-08 08:59:55 51°28.958 2°47.234 8.928392 3.456739 33.562261  
2003-01-08 08:59:59 51°28.972 2°47.226 8.925483 3.456634 33.562753  
2003-01-08 09:00:03 51°28.987 2°47.217 8.84222 3.456845 33.565026  
2003-01-08 09:00:09 51°29.01 2°47.207 8.763583 3.456634 33.563568  
2003-01-08 09:00:13 51°29.025 2°47.199 8.608178 3.457266 33.568756  
2003-01-08 09:00:19 51°29.047 2°47.187 8.882171 3.457371 33.570707  
2003-01-08 09:00:23 51°29.062 2°47.179 8.882171 3.457371 33.570707  
2003-01-08 09:00:29 51°29.085 2°47.166 8.884223 3.457477 33.570214  
2003-01-08 09:00:35 51°29.108 2°47.155 8.927104 3.457371 33.571521  
2003-01-08 09:00:39 51°29.122 2°47.146 8.814331 3.457372 33.573965  
2003-01-08 09:00:43 51°29.137 2°47.138 9.170925 3.457372 33.576409  
2003-01-08 09:00:49 51°29.16 2°47.127 8.942409 3.457372 33.57478  
2003-01-08 09:00:53 51°29.175 2°47.118 8.942409 3.457372 33.57478  
2003-01-08 09:00:59 51°29.198 2°47.107 8.827943 3.457582 33.577052  
2003-01-08 09:01:04 51°29.217 2°47.097 8.461523 3.458004 33.579968  
2003-01-08 09:01:09 51°29.236 2°47.087 8.319541 3.458741 33.585478  
2003-01-08 09:01:15 51°29.259 2°47.075 8.986633 3.459162 33.586763  
2003-01-08 09:01:19 51°29.274 2°47.068 8.634097 3.459584 33.587234  
2003-01-08 09:01:23 51°29.289 2°47.059 8.634097 3.459584 33.587234  
2003-01-08 09:01:29 51°29.311 2°47.049 8.870575 3.460637 33.594521  
2003-01-08 09:01:35 51°29.334 2°47.037 8.326183 3.461374 33.599213  
2003-01-08 09:01:39 51°29.349 2°47.03 8.527864 3.46169 33.600177  
2003-01-08 09:01:43 51°29.364 2°47.02 9.199611 3.462006 33.601955  
2003-01-08 09:01:49 51°29.387 2°47.011 9.282273 3.462322 33.603733  
2003-01-08 09:01:55 51°29.41 2°46.999 9.282273 3.462322 33.603733  
2003-01-08 09:01:59 51°29.425 2°46.992 8.858118 3.462533 33.605189  
2003-01-08 09:02:04 51°29.444 2°46.982 9.524718 3.46306 33.610053  
2003-01-08 09:02:09 51°29.463 2°46.972 9.103149 3.463903 33.615879  
2003-01-08 09:02:15 51°29.486 2°46.96 8.949654 3.464745 33.621705  
2003-01-08 09:02:19 51°29.501 2°46.952 9.06105 3.465904 33.628491  
2003-01-08 09:02:23 51°29.516 2°46.945 9.06105 3.465904 33.628491  
2003-01-08 09:02:29 51°29.538 2°46.934 9.175343 3.466852 33.633005  
2003-01-08 09:02:35 51°29.561 2°46.922 8.749432 3.467379 33.633792  
2003-01-08 09:02:39 51°29.576 2°46.915 8.948749 3.468538 33.643834  
2003-01-08 09:02:43 51°29.592 2°46.907 9.147644 3.469275 33.646075  
2003-01-08 09:02:49 51°29.615 2°46.896 9.267808 3.469907 33.65207  
2003-01-08 09:02:53 51°29.63 2°46.887 9.267808 3.469907 33.65207  
2003-01-08 09:02:59 51°29.652 2°46.877 9.237776 3.470012 33.65239  
2003-01-08 09:03:03 51°29.667 2°46.867 9.443121 3.470223 33.652215  
2003-01-08 09:03:09 51°29.689 2°46.857 9.530482 3.470644 33.658385  
2003-01-08 09:03:15 51°29.711 2°46.844 9.42235 3.471382 33.663885  
2003-01-08 09:03:19 51°29.727 2°46.84 9.071566 3.472014 33.667433  
2003-01-08 09:03:23 51°29.741 2°46.829 9.071566 3.472014 33.667433  
2003-01-08 09:03:29 51°29.764 2°46.819 9.070519 3.473067 33.673075  
2003-01-08 09:03:35 51°29.787 2°46.804 8.762388 3.474121 33.678715  
2003-01-08 09:03:39 51°29.802 2°46.798 8.885273 3.475912 33.689034  
2003-01-08 09:03:43 51°29.817 2°46.789 9.314892 3.477176 33.693679  
2003-01-08 09:03:49 51°29.84 2°46.778 9.116272 3.478334 33.701263  
2003-01-08 09:03:55 51°29.862 2°46.764 9.116272 3.478334 33.701263  
2003-01-08 09:03:59 51°29.877 2°46.757 9.456838 3.478861 33.703673  
2003-01-08 09:04:03 51°29.892 2°46.747 8.912273 3.479388 33.707712  
2003-01-08 09:04:09 51°29.915 2°46.738 8.911558 3.480231 33.712708  
2003-01-08 09:04:13 51°29.93 2°46.729 8.638455 3.480863 33.71625  
2003-01-08 09:04:19 51°29.953 2°46.717 9.229091 3.481389 33.719473  
2003-01-08 09:04:23 51°29.968 2°46.71 9.229091 3.481389 33.719473  
2003-01-08 09:04:29 51°29.991 2°46.697 8.923957 3.481284 33.7216  
2003-01-08 09:04:35 51°30.014 2°46.688 8.926818 3.480863 33.718696  
2003-01-08 09:04:39 51°30.029 2°46.679 9.159428 3.480441 33.716606  
2003-01-08 09:04:43 51°30.045 2°46.671 9.079177 3.480757 33.720823  
2003-01-08 09:04:49 51°30.067 2°46.66 8.840215 3.480652 33.719689  
2003-01-08 09:04:53 51°30.082 2°46.652 8.840215 3.480652 33.719689  
2003-01-08 09:04:59 51°30.105 2°46.639 9.536387 3.481179 33.722097  
2003-01-08 09:05:04 51°30.124 2°46.629 8.75799 3.482232 33.729358  
2003-01-08 09:05:09 51°30.142 2°46.619 9.347304 3.482443 33.729995  
2003-01-08 09:05:15 51°30.165 2°46.607 8.65718 3.482864 33.732899